Louisville Bowman, KY

5:15 AM EDT on June 26, 2017 (GMT -0400)
Bowman

Weather History for KLOU - December, 2013

Change the Weather History Date:

Wednesday, December 25, 2013

  Actual Average Record
Temperature  
Mean Temperature 30 °F 36 °F  
Max Temperature 40 °F 43 °F 66 °F (1982)
Min Temperature 19 °F 28 °F -7 °F (1983)
Degree Days  
Heating Degree Days 35 30  
Month to date heating degree days 663 682  
Since 1 July heating degree days 1571 1486  
Cooling Degree Days 0 0  
Month to date cooling degree days 0 0  
Year to date cooling degree days 1446 1444  
Moisture  
Dew Point 15 °F    
Average Humidity 55    
Maximum Humidity 73    
Minimum Humidity 37    
Precipitation  
Precipitation 0.00 in 0.13 in 2.09 in (1987)
Month to date precipitation 5.02 3.27  
Year to date precipitation 58.69 44.80  
Sea Level Pressure  
Sea Level Pressure 30.38 in    
Wind  
Wind Speed 4 mph (SSW)    
Max Wind Speed 12 mph    
Max Gust Speed 14 mph    
Visibility 10 miles    
Events      
T = Trace of Precipitation, MM = Missing Value Source: NWS Daily Summary

Daily Weather History Graph

Daily Weather History Graph

Search for Another Location

Airport or City:

Trip Planner

Search our weather history database for the weather conditions in past years. The results will help you decide how hot, cold, wet, or windy it might be!

Date:

Astronomy

Dec. 25, 2013 Rise Set
Actual Time 7:57 AM EST 5:28 PM EST
Civil Twilight 7:27 AM EST 5:57 PM EST
Nautical Twilight 6:54 AM EST 6:31 PM EST
Astronomical Twilight 6:22 AM EST 7:03 PM EST
Moon 12:29 AM EST (12/25) 12:27 PM EST (12/25)
Length of Visible Light 10h 30m
Length of Day
9h 30m
Waning Gibbous, 49% of the Moon is Illuminated
Dec 25
Waning Gibbous
Jan 1
New
Jan 7
First Quarter
Jan 15
Full
Jan 24
Last Quarter

Hourly Weather History & Observations

Time (EST) Temp. Windchill Dew Point Humidity Pressure Visibility Wind Dir Wind Speed Gust Speed Precip Events Conditions
12:53 AM 21.0 °F 13.4 °F 10.9 °F 65% 30.48 in 10.0 mi ESE 5.8 mph - N/A   Clear
1:53 AM 19.9 °F 14.9 °F 10.9 °F 68% 30.48 in 10.0 mi ESE 3.5 mph - N/A   Clear
2:53 AM 19.9 °F - 10.9 °F 68% 30.48 in 10.0 mi Calm Calm - N/A   Clear
3:53 AM 19.9 °F - 10.9 °F 68% 30.48 in 10.0 mi Calm Calm - N/A   Clear
4:53 AM 19.9 °F - 10.9 °F 68% 30.47 in 10.0 mi Calm Calm - N/A   Scattered Clouds
5:53 AM 19.0 °F - 12.0 °F 74% 30.47 in 10.0 mi Calm Calm - N/A   Clear
6:53 AM 19.0 °F - 12.0 °F 74% 30.46 in 10.0 mi Calm Calm - N/A   Clear
7:53 AM 19.0 °F 13.9 °F 12.0 °F 74% 30.45 in 10.0 mi SE 3.5 mph - N/A   Clear
8:53 AM 21.0 °F 16.2 °F 12.9 °F 71% 30.46 in 10.0 mi Variable 3.5 mph - N/A   Clear
9:53 AM 23.0 °F 14.7 °F 12.9 °F 65% 30.46 in 10.0 mi South 6.9 mph - N/A   Overcast
10:53 AM 26.1 °F 19.4 °F 15.1 °F 63% 30.44 in 10.0 mi South 5.8 mph - N/A   Overcast
11:53 AM 30.0 °F 22.4 °F 16.0 °F 56% 30.41 in 10.0 mi SSW 8.1 mph - N/A   Partly Cloudy
12:53 PM 33.1 °F 25.5 °F 16.0 °F 50% 30.36 in 10.0 mi South 9.2 mph - N/A   Clear
1:53 PM 36.0 °F 29.6 °F 17.1 °F 46% 30.32 in 10.0 mi SSW 8.1 mph - N/A   Clear
2:53 PM 39.0 °F 33.4 °F 16.0 °F 39% 30.30 in 10.0 mi SSW 8.1 mph - N/A   Mostly Cloudy
3:53 PM 39.9 °F 33.4 °F 16.0 °F 38% 30.29 in 10.0 mi WSW 10.4 mph - N/A   Overcast
4:53 PM 39.9 °F 35.8 °F 17.1 °F 40% 30.29 in 10.0 mi SW 5.8 mph - N/A   Overcast
5:53 PM 39.0 °F 35.7 °F 17.1 °F 41% 30.29 in 10.0 mi SW 4.6 mph - N/A   Overcast
6:53 PM 39.0 °F 36.8 °F 17.1 °F 41% 30.27 in 10.0 mi South 3.5 mph - N/A   Overcast
7:53 PM 37.9 °F 35.5 °F 18.0 °F 45% 30.28 in 10.0 mi WSW 3.5 mph - N/A   Overcast
8:53 PM 39.0 °F - 18.0 °F 43% 30.27 in 10.0 mi Calm Calm - N/A   Overcast
9:53 PM 39.0 °F 36.8 °F 18.0 °F 43% 30.27 in 10.0 mi SW 3.5 mph - N/A   Overcast
10:53 PM 39.0 °F 35.7 °F 19.0 °F 45% 30.27 in 10.0 mi SW 4.6 mph - N/A   Overcast
11:53 PM 37.9 °F 32.1 °F 21.0 °F 51% 30.26 in 10.0 mi WSW 8.1 mph - N/A   Overcast